Wichita Falls, TX

8:07 PM CDT on August 31, 2016 (GMT -0500)
Sheppard Air Force Base-Wichita Falls Municipal

Weather History for KSPS - January, 2012

Change the Weather History Date:

Sunday, January 1, 2012

  Actual Average Record
Temperature  
Mean Temperature 44 °F 41 °F  
Max Temperature 54 °F 53 °F 81 °F (2006)
Min Temperature 34 °F 29 °F 7 °F (1979)
Degree Days  
Heating Degree Days 21 24  
Month to date heating degree days 21 24  
Since 1 July heating degree days 1150 1221  
Moisture  
Dew Point 26 °F    
Average Humidity 49    
Maximum Humidity 70    
Minimum Humidity 28    
Precipitation  
Precipitation 0.00 in 0.04 in 1.00 in (1906)
Month to date precipitation 0.00 0.04  
Year to date precipitation 0.00 0.04  
Snow  
Snow 0.00 in 0.00 in - ()
Month to date snowfall 0.0 0.0  
Since 1 July snowfall 0.1 1.3  
Snow Depth -    
Sea Level Pressure  
Sea Level Pressure 30.53 in    
Wind  
Wind Speed 10 mph (NNW)    
Max Wind Speed 21 mph    
Max Gust Speed 26 mph    
Visibility 10 miles    
Events      
T = Trace of Precipitation, MM = Missing Value Source: NWS Daily Summary

Daily Weather History Graph

Daily Weather History Graph

Search for Another Location

Airport or City:

Trip Planner

Search our weather history database for the weather conditions in past years. The results will help you decide how hot, cold, wet, or windy it might be!

Date:

Astronomy

Jan. 01, 2012 Rise Set
Actual Time 7:39 AM CST 5:35 PM CST
Civil Twilight 7:11 AM CST 6:03 PM CST
Nautical Twilight 6:40 AM CST 6:34 PM CST
Astronomical Twilight 6:10 AM CST 7:04 PM CST
Moon 12:15 PM CST 12:46 AM CST
Length of Visible Light 10h 51m
Length of Day
9h 56m
First Quarter, 55% of the Moon is Illuminated
Jan 1
First Quarter
Jan 9
Full
Jan 16
Last Quarter
Jan 23
New
Jan 30
First Quarter

Hourly Weather History & Observations

Time (CST) Temp. Windchill Dew Point Humidity Pressure Visibility Wind Dir Wind Speed Gust Speed Precip Events Conditions
12:52 AM 45.0 °F 36.9 °F 30.0 °F 56% 30.30 in 10.0 mi North 20.7 mph - N/A   Clear
1:52 AM 45.0 °F 37.4 °F 28.9 °F 53% 30.30 in 10.0 mi North 18.4 mph - N/A   Clear
2:52 AM 43.0 °F 37.2 °F 28.9 °F 58% 30.35 in 10.0 mi NW 10.4 mph - N/A   Clear
3:52 AM 41.0 °F 34.7 °F 28.0 °F 60% 30.37 in 10.0 mi NW 10.4 mph - N/A   Clear
4:52 AM 37.9 °F 32.1 °F 28.0 °F 68% 30.39 in 10.0 mi NW 8.1 mph - N/A   Clear
5:52 AM 37.0 °F 32.4 °F 27.0 °F 67% 30.42 in 10.0 mi NNW 5.8 mph - N/A   Clear
6:52 AM 36.0 °F 29.0 °F 27.0 °F 70% 30.45 in 10.0 mi NNW 9.2 mph - N/A   Clear
7:52 AM 36.0 °F 30.3 °F 26.1 °F 67% 30.51 in 10.0 mi WNW 6.9 mph - N/A   Clear
8:52 AM 39.2 °F 33.0 °F 26.6 °F 61% 30.55 in 10.0 mi WNW 9.2 mph - N/A   Clear
9:52 AM 45.0 °F 38.9 °F 28.0 °F 52% 30.59 in 10.0 mi North 12.7 mph - N/A   Clear
10:52 AM 48.0 °F - 27.0 °F 44% 30.59 in 10.0 mi North 13.8 mph - N/A   Clear
11:52 AM 50.0 °F - 26.1 °F 39% 30.60 in 10.0 mi North 15.0 mph - N/A   Clear
12:52 PM 52.0 °F - 26.1 °F 37% 30.58 in 10.0 mi NNW 11.5 mph - N/A   Clear
1:52 PM 54.0 °F - 27.0 °F 35% 30.57 in 10.0 mi NW 10.4 mph 17.3 mph N/A   Clear
2:52 PM 53.6 °F - 23.0 °F 30% 30.58 in 10.0 mi NNW 11.5 mph - N/A   Clear
3:52 PM 53.6 °F - 21.2 °F 28% 30.58 in 10.0 mi NNW 11.5 mph - N/A   Clear
4:52 PM 52.0 °F - 25.0 °F 35% 30.59 in 10.0 mi NNW 8.1 mph - N/A   Clear
5:52 PM 46.9 °F - 25.0 °F 42% 30.60 in 10.0 mi NW 6.9 mph - N/A   Clear
6:52 PM 41.0 °F 35.8 °F 25.0 °F 53% 30.62 in 10.0 mi NW 8.1 mph - N/A   Clear
7:52 PM 39.9 °F 34.5 °F 25.0 °F 55% 30.63 in 10.0 mi NNW 8.1 mph - N/A   Clear
8:52 PM 39.9 °F 34.5 °F 24.1 °F 53% 30.63 in 10.0 mi NNW 8.1 mph - N/A   Clear
9:52 PM 37.9 °F 31.5 °F 24.1 °F 57% 30.64 in 10.0 mi NNW 9.2 mph - N/A   Clear
10:52 PM 37.0 °F 31.0 °F 24.1 °F 59% 30.65 in 10.0 mi NW 8.1 mph - N/A   Clear
11:52 PM 36.0 °F 30.3 °F 24.1 °F 62% 30.66 in 10.0 mi WNW 6.9 mph - N/A   Clear